Satellite-Ground Cal/Val Region Overpasses Predictions

Prediction of Satellite NPP Overpassing Cal/Val Region: PacNW

Region Location: (Latitude: 10.00, Longitude: 139.50) to (Latitude: 22.70, Longitude: 165.60).

Table of predicted overpasses for the next 14.0 days since TLE Epoch: 10/16/2022
Interval Starting Time Starting Location Ending Time Ending Location
1 10/16/2022 15:56:40 ( 22.67, 145.91) 10/16/2022 16:00:15 ( 10.05, 142.91)
2 10/17/2022 03:05:45 ( 10.02, 153.43) 10/17/2022 03:09:20 ( 22.64, 150.43)
3 10/17/2022 15:37:37 ( 22.69, 150.68) 10/17/2022 15:41:13 ( 10.01, 147.66)
4 10/18/2022 02:46:43 ( 10.06, 158.18) 10/18/2022 02:50:18 ( 22.68, 155.18)
5 10/18/2022 15:18:36 ( 22.65, 155.43) 10/18/2022 15:22:11 ( 10.03, 152.42)
6 10/19/2022 02:27:41 ( 10.03, 162.95) 10/19/2022 02:31:16 ( 22.66, 159.94)
7 10/19/2022 14:59:34 ( 22.68, 160.19) 10/19/2022 15:03:09 ( 10.06, 157.19)
8 10/20/2022 02:11:12 ( 19.06, 165.59) 10/20/2022 02:12:14 ( 22.69, 164.69)
9 10/20/2022 03:50:08 ( 10.02, 142.34) 10/20/2022 03:53:31 ( 21.94, 139.51)
10 10/20/2022 14:40:31 ( 22.70, 164.96) 10/20/2022 14:44:07 ( 10.02, 161.94)
11 10/20/2022 16:22:01 ( 22.69, 139.58) 10/20/2022 16:22:06 ( 22.40, 139.51)
12 10/21/2022 03:31:06 ( 10.00, 147.10) 10/21/2022 03:34:42 ( 22.68, 144.08)
13 10/21/2022 16:03:00 ( 22.65, 144.33) 10/21/2022 16:06:35 ( 10.03, 141.33)
14 10/22/2022 03:12:04 ( 10.04, 151.85) 10/22/2022 03:15:39 ( 22.66, 148.85)
15 10/22/2022 15:43:57 ( 22.67, 149.10) 10/22/2022 15:47:32 ( 10.05, 146.09)
16 10/23/2022 02:53:02 ( 10.02, 156.62) 10/23/2022 02:56:37 ( 22.65, 153.61)
17 10/23/2022 15:24:55 ( 22.69, 153.86) 10/23/2022 15:28:31 ( 10.01, 150.84)
18 10/24/2022 02:33:59 ( 10.01, 161.38) 10/24/2022 02:37:35 ( 22.69, 158.36)
19 10/24/2022 15:05:53 ( 22.64, 158.61) 10/24/2022 15:09:28 ( 10.02, 155.61)
20 10/25/2022 02:15:38 ( 12.40, 165.59) 10/25/2022 02:18:33 ( 22.67, 163.13)
21 10/25/2022 03:56:27 ( 10.00, 140.77) 10/25/2022 03:58:00 ( 15.46, 139.50)
22 10/25/2022 14:46:51 ( 22.66, 163.38) 10/25/2022 14:50:26 ( 10.04, 160.37)
23 10/26/2022 03:37:25 ( 10.05, 145.52) 10/26/2022 03:41:00 ( 22.67, 142.51)
24 10/26/2022 14:30:49 ( 12.05, 165.59) 10/26/2022 14:31:23 ( 10.05, 165.14)
25 10/26/2022 16:09:18 ( 22.66, 142.76) 10/26/2022 16:12:53 ( 10.05, 139.76)
26 10/27/2022 03:18:23 ( 10.03, 150.28) 10/27/2022 03:21:58 ( 22.66, 147.28)
27 10/27/2022 15:50:16 ( 22.68, 147.53) 10/27/2022 15:53:51 ( 10.06, 144.52)
28 10/28/2022 02:59:21 ( 10.02, 155.05) 10/28/2022 03:02:56 ( 22.64, 152.04)
29 10/28/2022 15:31:13 ( 22.69, 152.29) 10/28/2022 15:34:49 ( 10.01, 149.27)
30 10/29/2022 02:40:18 ( 10.01, 159.81) 10/29/2022 02:43:54 ( 22.69, 156.79)
31 10/29/2022 15:12:11 ( 22.70, 157.06) 10/29/2022 15:15:47 ( 10.02, 154.04)
